Findlay, OH

4:34 AM EST on February 10, 2016 (GMT -0500)
Findlay

Weather History for KFDY - October, 2011

Change the Weather History Date:

Thursday, October 20, 2011

  Actual Average Record
Temperature  
Mean Temperature 46 °F -  
Max Temperature 48 °F 57 °F 85 °F (1953)
Min Temperature 43 °F 39 °F 23 °F (1952)
Degree Days  
Heating Degree Days 19    
Moisture  
Dew Point 43 °F    
Average Humidity 93    
Maximum Humidity 100    
Minimum Humidity 85    
Precipitation  
Precipitation 0.04 in - - ()
Sea Level Pressure  
Sea Level Pressure 29.31 in    
Wind  
Wind Speed 14 mph (WSW)    
Max Wind Speed 22 mph    
Max Gust Speed 33 mph    
Visibility 6 miles    
Events Rain    
Averages and records for this station are not official NWS values.
T = Trace of Precipitation, MM = Missing Value Source: NWS Daily Summary

Daily Weather History Graph

Daily Weather History Graph

Search for Another Location

Airport or City:

Trip Planner

Search our weather history database for the weather conditions in past years. The results will help you decide how hot, cold, wet, or windy it might be!

Date:

Astronomy

Oct. 20, 2011 Rise Set
Actual Time 7:51 AM EDT 6:46 PM EDT
Civil Twilight 7:23 AM EDT 7:14 PM EDT
Nautical Twilight 6:51 AM EDT 7:46 PM EDT
Astronomical Twilight 6:19 AM EDT 8:18 PM EDT
Moon 12:31 AM EDT (10/20) 2:58 PM EDT (10/20)
Length of Visible Light 11h 51m
Length of Day
10h 55m
Last Quarter, 44% of the Moon is Illuminated
Oct 20
Last Quarter
Oct 26
New
Nov 2
First Quarter
Nov 10
Full
Nov 18
Last Quarter

Hourly Weather History & Observations

Time (EDT) Temp. Windchill Dew Point Humidity Pressure Visibility Wind Dir Wind Speed Gust Speed Precip Events Conditions
12:53 AM 48.9 °F - 46.9 °F 93% 29.11 in 4.0 mi SSW 10.4 mph - 0.00 in Rain Light Rain
1:08 AM 48.2 °F - 48.2 °F 100% 29.12 in 2.5 mi SSW 8.1 mph - 0.01 in Rain Light Rain
1:17 AM 48.2 °F - 48.2 °F 100% 29.12 in 5.0 mi SSW 8.1 mph - 0.01 in Rain Light Rain
1:32 AM 48.2 °F - 46.4 °F 93% 29.11 in 4.0 mi SW 11.5 mph - 0.02 in Rain Light Rain
1:53 AM 48.0 °F - 46.9 °F 96% 29.09 in 6.0 mi SW 9.2 mph - 0.02 in Rain Light Rain
2:08 AM 48.2 °F - 46.4 °F 93% 29.09 in 7.0 mi SW 10.4 mph - N/A   Overcast
2:45 AM 48.2 °F - 46.4 °F 93% 29.09 in 7.0 mi WSW 10.4 mph - N/A   Overcast
2:53 AM 46.9 °F - 46.0 °F 97% 29.09 in 6.0 mi WSW 10.4 mph - N/A   Overcast
3:53 AM 46.9 °F - 45.0 °F 93% 29.09 in 4.0 mi SW 9.2 mph - N/A   Overcast
4:53 AM 46.0 °F 39.9 °F 45.0 °F 96% 29.10 in 4.0 mi SW 13.8 mph - N/A   Overcast
5:53 AM 45.0 °F 38.9 °F 43.0 °F 93% 29.11 in 3.0 mi SW 12.7 mph 23.0 mph N/A   Overcast
6:53 AM 44.1 °F 37.4 °F 43.0 °F 96% 29.12 in 3.0 mi SW 13.8 mph - N/A   Overcast
7:08 AM 44.6 °F 37.8 °F 42.8 °F 93% 29.13 in 2.0 mi SW 15.0 mph - N/A   Overcast
7:35 AM 44.6 °F 38.4 °F 42.8 °F 93% 29.13 in 3.0 mi SW 12.7 mph - N/A   Overcast
7:45 AM 44.6 °F 38.1 °F 42.8 °F 93% 29.13 in 2.5 mi SW 13.8 mph 20.7 mph N/A   Overcast
7:53 AM 44.1 °F 38.1 °F 43.0 °F 96% 29.13 in 3.0 mi SW 11.5 mph - N/A   Overcast
8:06 AM 44.6 °F 37.8 °F 42.8 °F 93% 29.13 in 1.8 mi SW 15.0 mph - N/A   Overcast
8:53 AM 44.1 °F 37.1 °F 43.0 °F 96% 29.14 in 2.0 mi SW 15.0 mph - 0.00 in Rain Light Rain
9:38 AM 44.6 °F 37.8 °F 42.8 °F 93% 29.17 in 3.0 mi WSW 15.0 mph 23.0 mph 0.00 in Rain Light Rain
9:49 AM 44.6 °F 38.4 °F 42.8 °F 93% 29.17 in 2.0 mi WSW 12.7 mph 23.0 mph 0.00 in Rain Light Rain
9:53 AM 45.0 °F 38.2 °F 43.0 °F 93% 29.17 in 2.0 mi WSW 15.0 mph 21.9 mph 0.00 in Rain Light Rain
10:44 AM 44.6 °F 36.6 °F 42.8 °F 93% 29.20 in 1.8 mi West 19.6 mph 25.3 mph 0.00 in Rain Light Rain
10:53 AM 45.0 °F 37.4 °F 43.0 °F 93% 29.20 in 1.5 mi West 18.4 mph 27.6 mph 0.00 in Rain Light Rain
11:53 AM 45.0 °F 36.6 °F 44.1 °F 97% 29.25 in 1.8 mi West 21.9 mph 28.8 mph 0.00 in   Overcast
12:16 PM 44.6 °F 37.2 °F 44.6 °F 100% 29.28 in 2.0 mi West 17.3 mph 28.8 mph N/A   Overcast
12:44 PM 44.6 °F 36.6 °F 42.8 °F 93% 29.30 in 6.0 mi West 19.6 mph 27.6 mph 0.01 in Rain Light Rain
12:53 PM 45.0 °F 37.4 °F 43.0 °F 93% 29.30 in 8.0 mi West 18.4 mph 28.8 mph 0.01 in Rain Light Rain
1:07 PM 44.6 °F 37.2 °F 42.8 °F 93% 29.32 in 7.0 mi West 17.3 mph 24.2 mph 0.00 in Rain Light Rain
1:15 PM 44.6 °F 37.2 °F 42.8 °F 93% 29.33 in 8.0 mi West 17.3 mph 26.5 mph 0.00 in Rain Light Rain
1:31 PM 44.6 °F 37.2 °F 42.8 °F 93% 29.34 in 7.0 mi West 17.3 mph - 0.00 in Rain Light Rain
1:53 PM 44.1 °F 35.9 °F 42.1 °F 93% 29.35 in 8.0 mi West 19.6 mph 29.9 mph 0.01 in Rain Light Rain
2:14 PM 44.6 °F 36.9 °F 42.8 °F 93% 29.36 in 10.0 mi West 18.4 mph 32.2 mph 0.00 in Rain Light Rain
2:53 PM 44.1 °F 36.2 °F 42.1 °F 93% 29.39 in 7.0 mi West 18.4 mph 25.3 mph 0.00 in   Overcast
3:36 PM 44.6 °F 37.2 °F 42.8 °F 93% 29.42 in 10.0 mi West 17.3 mph 24.2 mph 0.00 in   Overcast
4:53 PM 46.0 °F 38.5 °F 43.0 °F 89% 29.47 in 10.0 mi West 19.6 mph 29.9 mph 0.00 in Rain Light Rain
5:17 PM 46.4 °F 39.0 °F 42.8 °F 87% 29.48 in 10.0 mi West 19.6 mph - 0.00 in Rain Light Rain
5:53 PM 46.0 °F 38.8 °F 43.0 °F 89% 29.51 in 9.0 mi West 18.4 mph 24.2 mph 0.00 in Rain Light Rain
6:10 PM 46.4 °F 39.8 °F 42.8 °F 87% 29.52 in 8.0 mi WSW 16.1 mph - 0.00 in Rain Light Rain
6:53 PM 46.0 °F 38.5 °F 42.1 °F 86% 29.57 in 10.0 mi West 19.6 mph 33.4 mph 0.00 in   Overcast
8:53 PM 44.1 °F 35.7 °F 41.0 °F 89% 29.66 in 10.0 mi West 20.7 mph 29.9 mph 0.00 in Rain Light Rain
9:25 PM 44.6 °F 36.9 °F 41.0 °F 87% 29.68 in 10.0 mi West 18.4 mph 27.6 mph 0.00 in   Overcast
9:53 PM 44.1 °F 35.4 °F 39.9 °F 85% 29.69 in 10.0 mi West 21.9 mph 26.5 mph 0.00 in   Overcast
10:10 PM 44.6 °F 36.6 °F 41.0 °F 87% 29.70 in 10.0 mi West 19.6 mph - 0.00 in   Overcast
10:23 PM 44.6 °F 37.8 °F 41.0 °F 87% 29.72 in 10.0 mi West 15.0 mph - 0.00 in Rain Light Rain
10:53 PM 44.1 °F 36.8 °F 41.0 °F 89% 29.73 in 10.0 mi West 16.1 mph - 0.00 in   Overcast
11:53 PM 43.0 °F 35.1 °F 41.0 °F 93% 29.76 in 10.0 mi West 17.3 mph - N/A   Overcast